When you browse on this site, cookies collect data to enhance your experience and personalize the content and advertising you see.
Visit our Privacy Policy to learn more. By continuing to use the site, you agree to this use of cookies and data.

Previsão horária em Aban

Hoje, 27 Setembro, Domingo

Tempo Temperatura Precipitação Vento Pressão Humidade
00:00 +7°C° 0 mm 3 m/s 744 mmHg 91%
01:00 +7°C° 0 mm 3 m/s 744 mmHg 91%
02:00 +5°C° 0 mm 3 m/s 744 mmHg 91%
03:00 +5°C° 0 mm 3 m/s 744 mmHg 91%
04:00 +5°C° 0 mm 3 m/s 745 mmHg 90%
05:00 +5°C° 0 mm 3 m/s 745 mmHg 89%
06:00 +5°C° 0 mm 3 m/s 746 mmHg 88%
07:00 +5°C° 0 mm 3 m/s 746 mmHg 86%
08:00 +5°C° 0 mm 3 m/s 746 mmHg 84%
09:00 +7°C° 0 mm 3 m/s 746 mmHg 82%
10:00 +7°C° 0 mm 3 m/s 746 mmHg 81%
11:00 +7°C° 0 mm 3 m/s 747 mmHg 79%
12:00 +8°C° 0 mm 3 m/s 747 mmHg 78%
13:00 +8°C° 0.1 mm 3 m/s 747 mmHg 80%
14:00 +8°C° 0.1 mm 3 m/s 747 mmHg 82%
15:00 +7°C° 0.1 mm 4 m/s 747 mmHg 84%
16:00 +7°C° 0 mm 3 m/s 747 mmHg 85%
17:00 +7°C° 0 mm 3 m/s 748 mmHg 85%
18:00 +7°C° 0 mm 2 m/s 748 mmHg 84%
19:00 +7°C° 0 mm 2 m/s 748 mmHg 84%
20:00 +6°C° 0 mm 2 m/s 748 mmHg 85%
21:00 +6°C° 0 mm 2 m/s 748 mmHg 85%
22:00 +6°C° 0 mm 2 m/s 748 mmHg 84%
23:00 +6°C° 0 mm 2 m/s 748 mmHg 83%

Amanhã, 28 Setembro, Segunda-feira

Tempo Temperatura Precipitação Vento Pressão Humidade
00:00 +6°C° 0 mm 2 m/s 748 mmHg 82%
01:00 +6°C° 0 mm 2 m/s 748 mmHg 82%
02:00 +6°C° 0 mm 2 m/s 748 mmHg 82%
03:00 +6°C° 0 mm 2 m/s 748 mmHg 82%
04:00 +5°C° 0 mm 2 m/s 748 mmHg 84%
05:00 +5°C° 0 mm 2 m/s 748 mmHg 85%
06:00 +5°C° 0 mm 2 m/s 748 mmHg 87%
07:00 +5°C° 0 mm 3 m/s 747 mmHg 78%
08:00 +7°C° 0 mm 3 m/s 747 mmHg 70%
09:00 +7°C° 0 mm 4 m/s 746 mmHg 62%
10:00 +8°C° 0 mm 4 m/s 746 mmHg 60%
11:00 +8°C° 0 mm 4 m/s 746 mmHg 58%
12:00 +10°C° 0 mm 4 m/s 745 mmHg 56%
13:00 +10°C° 0 mm 4 m/s 745 mmHg 57%
14:00 +10°C° 0 mm 4 m/s 744 mmHg 58%
15:00 +10°C° 0 mm 4 m/s 744 mmHg 59%
16:00 +8°C° 0 mm 4 m/s 744 mmHg 64%
17:00 +8°C° 0 mm 3 m/s 744 mmHg 69%
18:00 +5°C° 0 mm 3 m/s 744 mmHg 74%
19:00 +5°C° 0 mm 3 m/s 743 mmHg 77%
20:00 +5°C° 0 mm 2 m/s 743 mmHg 80%
21:00 +5°C° 0 mm 2 m/s 742 mmHg 84%
22:00 +3°C° 0 mm 3 m/s 742 mmHg 85%
23:00 +3°C° 0 mm 3 m/s 742 mmHg 86%

Depois de amanhã, 29 Setembro, Terça-feira

Tempo Temperatura Precipitação Vento Pressão Humidade
00:00 +3°C° 0 mm 3 m/s 741 mmHg 87%
01:00 +3°C° 0 mm 3 m/s 741 mmHg 87%
02:00 +3°C° 0 mm 4 m/s 740 mmHg 87%
03:00 +3°C° 0 mm 4 m/s 740 mmHg 87%
04:00 +4°C° 0 mm 4 m/s 739 mmHg 85%
05:00 +4°C° 0 mm 4 m/s 739 mmHg 84%
06:00 +4°C° 0 mm 4 m/s 739 mmHg 82%
07:00 +5°C° 0.2 mm 4 m/s 739 mmHg 84%
08:00 +5°C° 0.2 mm 4 m/s 739 mmHg 86%
09:00 +5°C° 0.2 mm 4 m/s 739 mmHg 87%
10:00 +5°C° 0.5 mm 4 m/s 739 mmHg 89%
11:00 +5°C° 0.5 mm 4 m/s 739 mmHg 90%
12:00 +4°C° 0.5 mm 4 m/s 740 mmHg 91%
13:00 +4°C° 0.2 mm 4 m/s 740 mmHg 89%
14:00 +3°C° 0.2 mm 4 m/s 740 mmHg 87%
15:00 +3°C° 0.2 mm 4 m/s 741 mmHg 86%
16:00 +1°C° 0 mm 4 m/s 742 mmHg 84%
17:00 +2°C° 0 mm 3 m/s 742 mmHg 83%
18:00 +1°C° 0 mm 3 m/s 743 mmHg 81%
19:00 0°C° 0 mm 3 m/s 744 mmHg 82%
20:00 +1°C° 0 mm 2 m/s 744 mmHg 84%
21:00 -1°C° 0 mm 2 m/s 745 mmHg 85%
22:00 -2°C° 0 mm 2 m/s 745 mmHg 85%
23:00 -2°C° 0 mm 2 m/s 746 mmHg 86%

30 Setembro, Quarta-feira

Tempo Temperatura Precipitação Vento Pressão Humidade
00:00 -3°C° 0 mm 2 m/s 746 mmHg 87%
01:00 -4°C° 0 mm 3 m/s 747 mmHg 88%
02:00 -4°C° 0 mm 3 m/s 747 mmHg 89%
03:00 -4°C° 0 mm 3 m/s 747 mmHg 90%
04:00 -4°C° 0 mm 3 m/s 747 mmHg 90%
05:00 -4°C° 0 mm 3 m/s 748 mmHg 90%
06:00 -5°C° 0 mm 3 m/s 748 mmHg 90%
07:00 -2°C° 0 mm 3 m/s 749 mmHg 84%
08:00 -1°C° 0 mm 3 m/s 749 mmHg 77%
09:00 0°C° 0 mm 3 m/s 749 mmHg 71%
10:00 +1°C° 0 mm 3 m/s 749 mmHg 65%
11:00 +2°C° 0 mm 3 m/s 749 mmHg 59%
12:00 +3°C° 0 mm 3 m/s 749 mmHg 54%
13:00 +3°C° 0 mm 3 m/s 749 mmHg 54%
14:00 +3°C° 0 mm 4 m/s 748 mmHg 54%
15:00 +3°C° 0 mm 4 m/s 748 mmHg 54%
16:00 +2°C° 0 mm 3 m/s 748 mmHg 59%
17:00 +1°C° 0 mm 3 m/s 748 mmHg 64%
18:00 +1°C° 0 mm 2 m/s 748 mmHg 69%
19:00 +1°C° 0 mm 2 m/s 748 mmHg 71%
20:00 +1°C° 0 mm 2 m/s 748 mmHg 72%
21:00 0°C° 0 mm 3 m/s 748 mmHg 73%
22:00 0°C° 0.1 mm 3 m/s 747 mmHg 81%
23:00 0°C° 0.1 mm 3 m/s 747 mmHg 88%

1 Outubro, Quinta-feira

Tempo Temperatura Precipitação Vento Pressão Humidade
00:00 -1°C° 0.1 mm 3 m/s 746 mmHg 96%
01:00 -1°C° 0.2 mm 3 m/s 746 mmHg 96%
02:00 -2°C° 0.2 mm 4 m/s 746 mmHg 96%
03:00 -2°C° 0.2 mm 4 m/s 745 mmHg 96%
04:00 -2°C° 0.3 mm 4 m/s 745 mmHg 96%
05:00 -1°C° 0.3 mm 3 m/s 745 mmHg 96%
06:00 -1°C° 0.3 mm 3 m/s 745 mmHg 97%
07:00 0°C° 0.2 mm 3 m/s 744 mmHg 96%
08:00 0°C° 0.2 mm 3 m/s 744 mmHg 96%
09:00 0°C° 0.2 mm 3 m/s 744 mmHg 95%
10:00 0°C° 0.2 mm 3 m/s 744 mmHg 95%
11:00 0°C° 0.2 mm 3 m/s 744 mmHg 95%
12:00 +1°C° 0.2 mm 3 m/s 744 mmHg 95%
13:00 +1°C° 0.2 mm 3 m/s 744 mmHg 95%
14:00 +2°C° 0.2 mm 2 m/s 744 mmHg 95%
15:00 +2°C° 0.2 mm 2 m/s 744 mmHg 96%
16:00 +1°C° 0.2 mm 2 m/s 744 mmHg 96%
17:00 +1°C° 0.2 mm 2 m/s 744 mmHg 97%
18:00 +1°C° 0.2 mm 2 m/s 744 mmHg 97%
19:00 +1°C° 0.1 mm 2 m/s 745 mmHg 97%
20:00 +1°C° 0.1 mm 2 m/s 745 mmHg 97%
21:00 +1°C° 0.1 mm 2 m/s 746 mmHg 96%
22:00 +1°C° 0.1 mm 2 m/s 746 mmHg 97%
23:00 -1°C° 0.1 mm 2 m/s 746 mmHg 97%

2 Outubro, Sexta-feira

Tempo Temperatura Precipitação Vento Pressão Humidade
00:00 -1°C° 0.1 mm 2 m/s 746 mmHg 97%
01:00 -1°C° 0.1 mm 2 m/s 747 mmHg 97%
02:00 -1°C° 0.1 mm 2 m/s 747 mmHg 96%
03:00 -2°C° 0.1 mm 2 m/s 748 mmHg 96%
04:00 -2°C° 0 mm 2 m/s 748 mmHg 95%
05:00 -2°C° 0 mm 2 m/s 749 mmHg 95%
06:00 -3°C° 0 mm 2 m/s 749 mmHg 94%
07:00 -2°C° 0 mm 2 m/s 749 mmHg 93%
08:00 -2°C° 0 mm 2 m/s 749 mmHg 91%
09:00 -1°C° 0 mm 2 m/s 749 mmHg 90%
10:00 +1°C° 0 mm 2 m/s 749 mmHg 85%
11:00 +2°C° 0 mm 2 m/s 749 mmHg 81%
12:00 +3°C° 0 mm 2 m/s 750 mmHg 76%
13:00 +3°C° 0 mm 2 m/s 749 mmHg 75%
14:00 +2°C° 0 mm 3 m/s 749 mmHg 74%
15:00 +2°C° 0 mm 3 m/s 749 mmHg 73%
16:00 +2°C° 0 mm 2 m/s 749 mmHg 78%
17:00 -1°C° 0 mm 2 m/s 749 mmHg 84%
18:00 -2°C° 0 mm 2 m/s 749 mmHg 90%
19:00 -2°C° 0 mm 2 m/s 749 mmHg 90%
20:00 -2°C° 0 mm 2 m/s 749 mmHg 90%
21:00 -2°C° 0 mm 2 m/s 749 mmHg 91%
22:00 -2°C° 0 mm 2 m/s 749 mmHg 91%
23:00 -2°C° 0 mm 2 m/s 749 mmHg 92%
Mostrar mais